FENGYUN 1C DEB, 30167

Orbit data source: Space-Track

FENGYUN 1C DEB, 30167 is space debris in SSO originally from a launch on Mon, 10 May 1999 UTC launched from the Taiyaun Space Center, China (TSC). Fengyun 1C debris stems from the Chinese weather satellite Fengyun-1C, which was intentionally destroyed by a Chinese anti-satellite missile in 2007. This event dramatically increased the amount of space debris, with thousands of trackable fragments posing hazards to satellites and human spaceflight. The Fengyun 1C debris cloud has become a focal point in discussions about space sustainability and the need for international regulations to prevent the creation of new debris.

Loading next visibility...
Identifier
30167, 1999-025TY
Orbit
SSO
Country
Flag of CNCN / PRC
Related business
Manufacturer
Unknown
Mission
Spacecraft
Bus & Motor
Unknown
Mass
Unknown
Launch date (UTC)
1999-05-10 (27 years ago)
Launch vehicle
Unknown
Launch site
Taiyaun Space Center, China (TSC)
Object type
Payload
Rocket body
Debris
Shape & HBR
Unknown shape, 0.1 m
Radar Cross Section
Small (<0.1 m²)

Expand to show TLE details & history
Last TLE update: 8 hours ago

TLE from 8 hours ago
0 FENGYUN 1C DEB
1 30167U 99025TY  26104.84219016  .00000991  00000-0  24232-3 0  9991
2 30167  98.9589 202.5874 0143421 145.5008 332.5453 14.49020217 11404
Epoch: 2026-04-14T20:12Z
TLE epoch observation values (Epoch: 2026-04-14T20:12:45.229Z)
Latitude
61.49547°
Longitude
-106.83214°
Altitude
649.182 km
Speed
7.587 km/s
True Right ascension
02h 37m 28s
True Declination
61° 20' 56"
Sunlit
Object was in daylight at epoch
Visualization orbit readout
Latitude
Unknown
Longitude
Unknown
Altitude
Unknown
Speed
Unknown
Apparent Right ascension
Unknown
Apparent Declination
Unknown
Sunlit
N/A
Visualization observer readout
Local Sidereal Time
10:24:30
Azimuth
Unknown
Elevation
Unknown
Doppler factor
Unknown
Orbital elements
Apogee altitude
827.87 km
Perigee altitude
624.094 km
Semi-major axis
7,104.119 km
Eccentricity
0.01434
Inclination
98.9589°
RAAN
202.5874°
Arg. of periapsis
145.5008°
True anomaly
331.77536°
Mean anomaly
332.5453°
Eccentric anomaly
332.16156°
Mean motion
3.62475 °/min
Orbital period
99.32 mins
BSTAR
0.00024232
Loading maneuver chart data...
Computing Atmospheric mass density...

Documentation

Showing up to 5 results
|